Location: Unspecified
(0.0000°N, 0.0000°E)
Time: 02:55:09
(UTC+00:00)

Hubble Space Telescope - Visible Passes

Search period start: 19 February 2026 00:00
Search period end: 01 March 2026 00:00
Orbit: 478 x 479 km, 28.5° (Epoch: 18 February)

Date Brightness Start Highest point End Pass type
(mag) Time Alt. Az. Time Alt. Az. Time Alt. Az.
26 Feb 3.6 20:17:14 10° SW 20:17:28 11° SW 20:17:28 11° SW visible
27 Feb 2.2 19:46:49 10° SW 19:49:01 26° S 19:49:01 26° S visible
28 Feb 1.4 19:16:24 10° SW 19:19:50 33° SSE 19:20:36 30° SE visible
